Home > Weather > Spokane > Past weeks

Flag for USA Past Weather in Spokane, Washington, USA — Yesterday and Last 2 Weeks

Now
75 °F

Sunny.


Feels Like: 77 °F
Forecast: 62 / 85 °F
Wind: 3 mph from Northeast

Location: Felts Field

Current Time: Aug 26, 2016 at 8:24:19 PM

Latest Report: Aug 26, 2016 at 7:53 PM


Visibility: 10 mi

Pressure: 29.79 "Hg (27.90 "Hg at 569m altitude)

Humidity: 27%

Dew Point: 39 °F

Location of SpokaneLocation

Past Weather in Spokane — Graph

°F

Spokane Temperature Yesterday

Maximum temperature yesterday: 85 °F (at 4:53 PM)
Minimum temperature yesterday: 52 °F (at 4:53 AM)
Average temperature yesterday: 69 °F

High & Low Weather Summary for the Past Weeks

 TemperatureHumidityPressure
High94 °F (Aug 14, 2:53 PM)80% (Aug 12, 5:53 AM)30.22 "Hg (Aug 12, 5:53 AM)
Low52 °F (Aug 23, 5:53 AM)11% (Aug 21, 2:53 PM)29.61 "Hg (Aug 21, 7:53 PM)
Average73 °F37%29.96 "Hg
* Reported Aug 11 6:53 PM — Aug 26 6:53 PM, Spokane, Weather by CustomWeather, © 2016

Note: Actual official high and low records may vary slightly from our data, if they occured in-between our weather recording intervals... More about our weather records

Advertising

Spokane Weather History for the Previous 24 Hours

Scroll right to see more
 ConditionsComfort  
Time TempWeatherWind HumidityBarometerVisibility
6:53 PM
Fri, Aug 26
84 °FSunny.3 mph18%29.80 "Hg10 mi
5:53 PM84 °FSunny.No wind19%29.81 "Hg10 mi
4:53 PM85 °FSunny.6 mph18%29.83 "Hg10 mi
3:53 PM85 °FSunny.6 mph18%29.85 "Hg10 mi
2:53 PM86 °FSunny.6 mph17%29.86 "Hg10 mi
1:53 PM84 °FPassing clouds.No wind19%29.89 "Hg10 mi
12:53 PM82 °FPassing clouds.12 mph22%29.91 "Hg10 mi
11:53 AM79 °FSunny.No wind25%29.93 "Hg10 mi
10:53 AM77 °FSunny.3 mph26%29.95 "Hg10 mi
9:53 AM74 °FSunny.5 mph35%29.97 "Hg10 mi
8:53 AM69 °FSunny.No wind41%29.98 "Hg10 mi
7:53 AM65 °FSunny.No wind47%29.99 "Hg10 mi
6:53 AM57 °FClear.No wind64%29.99 "Hg10 mi
5:53 AM53 °FClear.No wind72%29.99 "Hg10 mi
4:53 AM55 °FClear.No wind67%29.98 "Hg10 mi
3:53 AM58 °FClear.3 mph56%29.98 "Hg10 mi
2:53 AM59 °FClear.No wind54%29.98 "Hg10 mi
1:53 AM62 °FClear.No wind50%29.98 "Hg10 mi
12:53 AM63 °FClear.3 mph43%29.98 "Hg10 mi
11:53 PM
Thu, Aug 25
65 °FClear.5 mph40%29.98 "Hg10 mi
10:53 PM67 °FClear.5 mph36%29.98 "Hg10 mi
9:53 PM68 °FPassing clouds.5 mph33%29.99 "Hg10 mi
8:53 PM69 °FClear.3 mph31%29.99 "Hg10 mi
Weather by CustomWeather, © 2016

See weather overviewHow to use our weather pages